Weather observations for the past three days for
Granby-Grand County Airport
Imperial (Metric)
Date Time (mdt) Wind (mph) Vis. (mi.) Weather Sky Cond. Temperature (ºF) Relative Humidity Wind Chill (°F) Heat Index (°F) Pressure Precipitation (in)
Air Dwpt 6 hour altimeter (in) sea level (mb) 1 hr 3 hr 6 hr
Max. Min.
19 10:15 S 9 G 18 10.00 Overcast OVC100 61.2 34.5 37% 30.26 0.0
19 09:55 SE 9 G 22 10.00 Overcast OVC100 61.5 34.5 37% 30.26 0.0
19 09:35 SE 12 10.00 Overcast OVC110 59.2 32.9 37% 30.26 0.0
19 09:15 E 5 10.00 Overcast OVC110 56.8 31.8 39% 30.26 0.0
19 08:55 SE 5 7.00 Mostly Cloudy BKN110 56.5 31.5 39% 30.27 0.0
19 08:35 Calm 10.00 Partly Cloudy SCT110 54.1 31.1 42% 30.27 0.0
19 08:15 N 3 10.00 Partly Cloudy SCT110 52.3 31.8 46% 30.27 0.0
19 07:55 Calm 10.00 Partly Cloudy SCT100 SCT120 50.4 32.5 51% 30.27 0.0
19 07:35 Calm 10.00 Partly Cloudy SCT110 48.4 32.9 55% 30.27 0.0
19 07:15 Calm 7.00 Partly Cloudy SCT110 47.5 31.8 55% 30.27 0.0
19 06:55 N 5 10.00 Mostly Cloudy BKN120 45.7 31.8 59% 44 30.26 0.0
19 06:35 Calm 10.00 Overcast OVC120 44.6 30.7 58% 30.26 0.0
19 06:15 N 3 10.00 Overcast OVC120 42.4 31.5 65% 30.25 0.0
19 05:55 Calm 10.00 Mostly Cloudy BKN120 39.2 29.8 52 37.4 69% 30.25 0.0
19 05:35 Calm 10.00 Partly Cloudy SCT120 38.5 28.6 68% 30.24 0.0
19 05:15 SE 5 10.00 Fair CLR 38.5 28.6 68% 36 30.23 0.0
19 04:55 Calm 10.00 Fair CLR 40.5 28.2 62% 30.22 0.0
19 04:35 Calm 10.00 Fair CLR 41.5 28.4 60% 30.22 0.0
19 04:15 Calm 10.00 Fair CLR 42.4 28.2 57% 30.22 0.0
19 03:55 Calm 10.00 Fair CLR 43.9 27.5 53% 30.21 0.0
19 03:35 SE 6 10.00 Fair CLR 43.5 27.5 53% 41 30.21 0.0
19 03:15 Calm 10.00 Fair CLR 44.4 27.1 51% 30.2 0.0
19 02:55 Calm 10.00 Fair CLR 43.9 27.3 52% 30.2 0.0
19 02:35 NW 3 10.00 Fair CLR 46.6 26.4 45% 30.21 0.0
19 02:15 N 3 10.00 Fair CLR 45.9 27 48% 30.21 0.0
19 01:55 N 3 10.00 Fair CLR 49.3 26.6 41% 30.22 0.0
19 01:35 Calm 10.00 Fair CLR 49.6 26.4 41% 30.22 0.0
19 01:15 SE 5 10.00 Partly Cloudy SCT110 50.9 26.4 39% 30.24 0.0
19 00:55 N 3 10.00 Mostly Cloudy SCT080 BKN110 50.4 26.4 39% 30.24 0.0
19 00:35 SE 7 10.00 Mostly Cloudy SCT080 BKN120 51.4 25.7 37% 30.24 0.0
19 00:15 Calm 10.00 Overcast BKN090 OVC120 51.8 26.2 37% 30.24 0.0
18 23:55 Calm 10.00 Overcast BKN100 OVC120 51.4 26.6 65.5 47.3 38% 30.25 0.0
18 23:35 E 8 10.00 Overcast OVC100 51.6 26.6 38% 30.24 0.0
18 23:15 E 6 10.00 Overcast SCT070 OVC100 51.4 26.8 38% 30.24 0.0
18 22:55 E 3 10.00 Overcast SCT070 OVC100 51.3 28.6 42% 30.24 0.0
18 22:35 E 5 10.00 Mostly Cloudy SCT080 BKN100 49.1 29.7 47% 48 30.22 0.0
18 22:15 NE 3 10.00 Mostly Cloudy SCT080 BKN100 48 29.8 49% 30.21 0.0
18 21:55 SW 3 10.00 Fair CLR 51.6 26.8 38% 30.2 0.0
18 21:35 W 5 10.00 Fair CLR 51.6 27.9 40% 30.19 0.0
18 21:15 Calm 10.00 Partly Cloudy SCT095 53.8 27.5 36% 30.18 0.0
18 20:55 S 7 10.00 Partly Cloudy SCT095 54.7 28 36% 30.16 0.0
18 20:35 S 7 10.00 Partly Cloudy SCT095 56.3 28.6 35% 30.15 0.0
18 20:15 SW 6 10.00 Partly Cloudy SCT095 58.5 27.5 31% 30.13 0.0
18 19:55 SW 8 10.00 Fair CLR 60.1 27.1 29% 30.13 0.0
18 19:35 W 7 10.00 Fair CLR 61 25.9 26% 30.11 0.0
18 19:15 SW 5 10.00 Fair CLR 62.4 25.9 25% 30.1 0.0
18 18:55 W 8 10.00 Fair CLR 63.7 26.4 24% 30.08 0.0
18 18:35 W 13 G 21 10.00 Fair CLR 64.2 26.8 24% 30.07 0.0
18 18:15 W 16 G 24 10.00 Fair CLR 64.8 26.4 23% 30.06 0.0
18 17:55 W 20 G 28 10.00 Fair CLR 65.5 26.4 69.6 56.1 23% 30.06 0.0
18 17:35 W 22 G 28 10.00 Fair and Breezy CLR 66.2 26.4 22% 30.04 0.0
18 17:15 W 17 G 28 10.00 Fair CLR 66.7 26.4 22% 30.04 0.0
18 16:55 W 18 G 31 10.00 Fair CLR 67.5 27.7 22% 30.04 0.0
18 16:35 W 22 G 31 10.00 Fair and Breezy CLR 68.5 27.1 21% 30.04 0.0
18 16:15 W 17 G 32 10.00 Fair CLR 69.3 26.6 20% 30.04 0.0
18 15:55 W 17 G 31 7.00 Fair CLR 69.4 27 20% 30.04 0.0
18 15:35 W 20 G 29 10.00 Fair CLR 68.9 27.1 21% 30.04 0.0
18 15:15 W 16 G 30 10.00 Fair CLR 67.6 26.4 21% 30.05 0.0
18 14:55 W 10 G 16 10.00 Fair CLR 64.8 28.6 26% 30.05 0.0
18 14:35 SW 10 10.00 Fair CLR 64.9 31.1 28% 30.05 0.0
18 14:15 W 5 10.00 Fair CLR 62.8 29.7 29% 30.06 0.0
18 13:55 W 10 G 16 10.00 Fair CLR 63.7 30.7 29% 30.06 0.0
18 13:35 NW 6 10.00 Partly Cloudy SCT100 59.5 27.9 30% 30.06 0.0
18 13:15 W 6 10.00 Partly Cloudy SCT100 59.4 27.9 30% 30.06 0.0
18 12:55 W 5 10.00 Partly Cloudy SCT110 58.5 27.7 31% 30.07 0.0
18 12:35 SW 5 10.00 Partly Cloudy SCT110 58.1 26.4 30% 30.07 0.0
18 12:15 W 7 10.00 Partly Cloudy SCT110 56.3 25.5 31% 30.08 0.0
18 11:55 SW 8 10.00 Partly Cloudy SCT085 54.1 26.1 54.1 32 34% 30.08 0.0
18 11:35 SE 5 10.00 Partly Cloudy SCT095 54.1 27.7 36% 30.08 0.0
18 11:15 Calm 10.00 Partly Cloudy SCT095 51.4 26.2 38% 30.08 0.0
18 10:55 E 5 10.00 Partly Cloudy SCT095 49.5 25.9 40% 48 30.09 0.0
18 10:35 Calm 10.00 Mostly Cloudy BKN095 48 24.8 40% 30.09 0.0
18 10:15 Calm 10.00 Partly Cloudy SCT095 46.4 23.7 41% 30.09 0.0
18 09:55 Calm 10.00 Partly Cloudy SCT095 45 22.5 41% 30.09 0.0
18 09:35 W 3 10.00 Partly Cloudy SCT095 44.4 22.5 42% 30.08 0.0
18 09:15 Calm 10.00 Fair CLR 44.4 21 39% 30.08 0.0
18 08:55 W 5 10.00 Fair CLR 43.2 21 41% 41 30.07 0.0
18 08:35 NW 5 10.00 Fair CLR 41.2 19.2 41% 39 30.06 0.0
18 08:15 W 6 10.00 Fair CLR 39.7 19.4 44% 36 30.07 0.0
18 07:55 W 6 10.00 Fair CLR 37.2 19.2 48% 33 30.06 0.0
18 07:35 NW 3 10.00 Fair CLR 35.4 19 51% 30.07 0.0
18 07:15 NW 3 10.00 Fair CLR 35.8 18.3 49% 30.08 0.0
18 06:55 NW 3 10.00 Fair CLR 36 18.1 48% 30.08 0.0
18 06:35 NW 3 10.00 Fair CLR 34 18.3 53% 30.08 0.0
18 06:15 N 3 10.00 Fair CLR 32.5 21 63% 30.07 0.0
18 05:55 Calm 10.00 Fair CLR 32 22.5 58.3 32 68% 30.07 0.0
18 05:35 Calm 10.00 Fair CLR 33.6 21.7 62% 30.07 0.0
18 05:15 SW 6 10.00 Fair CLR 35.8 20.3 53% 32 30.06 0.0
18 04:55 SW 8 10.00 Fair CLR 36.7 20.1 51% 31 30.05 0.0
18 04:35 S 8 10.00 Fair CLR 37.2 20.3 50% 32 30.04 0.0
18 04:15 S 9 10.00 Fair CLR 37.6 20.5 50% 32 30.03 0.0
18 03:55 S 8 10.00 Fair CLR 37.8 10.9 33% 32 30.02 0.0
18 03:35 S 12 G 16 10.00 Fair CLR 38.5 -19.7 7% 32 30.01 0.0
18 03:15 S 7 G 10 10.00 Fair CLR 39.6 -19.5 7% 35 29.99 0.0
18 02:55 SW 15 G 21 10.00 Fair CLR 40.1 -16.6 8% 33 29.97 0.0
18 02:35 S 15 G 18 10.00 Fair CLR 42.8 -16.1 7% 36 29.95 0.0
18 02:15 S 10 G 17 10.00 Fair CLR 45.3 -14.6 7% 41 29.92 0.0
18 01:55 SW 9 G 20 10.00 Partly Cloudy SCT120 49.3 -14.3 6% 46 29.9 0.0
18 01:35 SW 7 10.00 Overcast OVC120 52.3 -13.5 6% 29.88 0.0
18 01:15 SW 5 10.00 Mostly Cloudy BKN120 54.7 -17 4% 29.86 0.0
18 00:55 S 10 10.00 Partly Cloudy SCT120 55 -17.1 4% 29.85 0.0
18 00:15 Calm 10.00 Fair CLR 53.2 -21.8 4% 29.81 0.0
17 23:55 SE 8 10.00 Fair CLR 55.8 -26.1 3% 29.8 0.0
17 23:35 SE 6 10.00 Fair CLR 59.9 -32.8 1% 29.81 0.0
17 23:15 S 5 10.00 Fair CLR 0 0 0% 29.81 0.0
17 22:55 S 3 10.00 Fair CLR 62.4 -35.9 1% 29.82 0.0
17 22:35 SE 5 10.00 Fair CLR 60.8 -32.1 2% 29.82 0.0
17 22:15 SE 7 10.00 Fair CLR 59.7 -31 2% 29.83 0.0
17 21:55 SE 5 10.00 Fair CLR 63.1 -35.7 1% 29.83 0.0
17 21:35 W 8 10.00 Fair CLR 0 0 0% 29.83 0.0
17 21:15 W 14 G 21 10.00 Fair CLR 0 0 0% 29.82 0.0
17 20:55 W 14 G 20 10.00 Fair CLR 0 0 0% 29.81 0.0
17 20:35 W 22 G 30 10.00 Fair and Breezy CLR 0 0 0% 29.81 0.0
17 20:15 W 20 G 32 10.00 Fair CLR 0 0 0% 29.8 0.0
17 19:55 W 22 G 29 10.00 Fair and Breezy CLR 0 0 0% 29.79 0.0
17 19:35 W 21 G 29 10.00 Fair and Breezy CLR 0 0 0% 29.78 0.0
17 19:15 W 21 G 32 10.00 Fair and Breezy CLR 0 0 0% 29.78 0.0
17 18:55 W 14 G 23 10.00 Fair CLR 0 0 0% 29.77 0.0
17 18:35 W 16 G 26 10.00 Fair CLR 0 0 0% 29.77 0.0
17 18:15 W 24 G 30 10.00 Partly Cloudy and Breezy SCT120 0 0 0% 29.76 0.0
17 17:55 W 16 G 28 10.00 Partly Cloudy SCT120 0 0 0% 29.76 0.0
17 17:35 W 18 G 30 10.00 Partly Cloudy SCT120 0 0 0% 29.76 0.0
17 17:15 W 18 G 29 10.00 Partly Cloudy SCT120 0 0 0% 29.77 0.0
17 16:55 W 16 G 29 10.00 Partly Cloudy SCT120 0 0 0% 29.77 0.0
17 16:35 W 18 G 25 10.00 Fair CLR 0 0 0% 29.78 0.0
17 16:15 W 12 G 25 10.00 Fair CLR 0 0 0% 29.79 0.0
17 15:55 W 15 G 26 10.00 Fair CLR 0 0 0% 29.79 0.0
17 15:35 W 22 G 29 10.00 Fair and Breezy CLR 0 0 0% 29.79 0.0
17 15:15 W 12 G 22 10.00 Fair CLR 0 0 0% 29.79 0.0
17 14:55 SW 12 G 25 10.00 Fair CLR 0 0 0% 29.8 0.0
17 14:35 W 16 G 23 10.00 Fair CLR 0 0 0% 29.81 0.0
17 14:15 W 15 G 22 10.00 Fair CLR 0 0 0% 29.81 0.0
17 13:55 W 14 G 28 10.00 Fair CLR 0 0 0% 29.82 0.0
17 13:35 W 15 G 28 10.00 Fair CLR 0 0 0% 29.83 0.0
17 13:15 W 14 G 24 10.00 Fair CLR 0 0 0% 29.84 0.0
17 12:55 W 10 G 20 10.00 Fair CLR 0 0 0% 29.84 0.0
17 12:15 W 5 10.00 Fair CLR 0 0 0% 29.86 0.0
17 11:55 W 13 G 21 10.00 Fair CLR 0 0 0% 29.88 0.0
17 11:35 W 3 10.00 Fair CLR 0 0 0% 29.88 0.0
17 11:15 SW 6 10.00 Fair CLR 72.5 -30.6 1% 29.89 0.0
17 10:55 SE 3 10.00 Fair CLR 70.3 -27.2 1% 29.9 0.0
17 10:35 W 5 10.00 Fair CLR 68.7 -26.1 2% 29.91 0.0
17 10:15 Calm 10.00 Fair CLR 66.4 -26 2% 29.91 0.0
17 09:55 Calm 10.00 Fair CLR 64.6 -10.7 4% 29.92 0.0
17 09:35 Calm 10.00 Fair CLR 61.7 -4.4 7% 29.93 0.0
17 09:15 Calm 10.00 Fair CLR 57.4 -1.5 9% 29.94 0.0
17 08:55 Calm 10.00 Fair CLR 55.4 -1.3 10% 29.95 0.0
17 08:35 Calm 10.00 Fair CLR 53.8 -4.2 9% 29.95 0.0
17 08:15 Calm 10.00 Fair CLR 50.9 -5.3 9% 29.96 0.0
17 07:55 Calm 10.00 Fair CLR 50 -2 11% 29.97 0.0
17 07:35 Calm 10.00 Fair CLR 48 -0.9 13% 29.97 0.0
17 07:15 Calm 10.00 Fair CLR 45.9 -0.6 14% 29.97 0.0
17 06:55 Calm 10.00 Fair CLR 45.3 -4.5 12% 29.97 0.0
17 06:35 Calm 10.00 Fair CLR 41.2 3 20% 29.97 0.0
17 06:15 SE 3 10.00 Fair CLR 40.5 -2.7 16% 29.96 0.0
17 05:55 Calm 10.00 Fair CLR 39.9 -0.9 58.8 36.9 18% 29.95 0.0
17 05:35 Calm 10.00 Fair CLR 37.2 -1.5 19% 29.95 0.0
17 05:15 Calm 10.00 Fair CLR 39.6 -3.6 16% 29.95 0.0
17 04:55 Calm 10.00 Fair CLR 40.6 -8 12% 29.95 0.0
17 04:35 Calm 10.00 Fair CLR 40.3 -7.8 12% 29.94 0.0
17 04:15 Calm 10.00 Fair CLR 40.8 -6 13% 29.93 0.0
17 03:55 NE 3 10.00 Fair CLR 39.4 -3.5 16% 29.93 0.0
17 03:35 Calm 10.00 Fair CLR 41.5 -5.6 13% 29.93 0.0
17 03:15 Calm 10.00 Fair CLR 43.3 -6.9 11% 29.93 0.0
17 02:55 Calm 10.00 Fair CLR 46 -4.2 12% 29.94 0.0
17 02:35 NE 3 10.00 Fair CLR 45.7 -3.6 12% 29.93 0.0
17 02:15 Calm 10.00 Fair CLR 47.7 -9.4 9% 29.94 0.0
17 01:55 NE 5 10.00 Fair CLR 45.5 -9.2 9% 44 29.94 0.0
17 01:35 Calm 10.00 Fair CLR 44.8 -7.4 11% 29.95 0.0
17 01:15 Calm 10.00 Fair CLR 45.7 -7.6 10% 29.95 0.0
17 00:55 NE 6 10.00 Fair CLR 48.6 -12.6 7% 47 29.95 0.0
17 00:35 Calm 10.00 Fair CLR 51.1 -15 6% 29.96 0.0
17 00:15 Calm 10.00 Fair CLR 52.9 -15.5 5% 29.97 0.0
16 23:55 SE 10 10.00 Fair CLR 58.6 -24.9 2% 29.98 0.0
16 23:35 SE 6 10.00 Fair CLR 57.7 -26.5 2% 29.99 0.0
16 23:15 SE 6 10.00 Fair CLR 57.4 -25.8 2% 29.99 0.0
16 22:55 SE 3 10.00 Fair CLR 57.6 -25.2 3% 29.99 0.0
16 22:35 SE 5 10.00 Fair CLR 57.6 -26.7 2% 30 0.0
16 22:15 SE 8 10.00 Fair CLR 58.1 -29.6 2% 30 0.0
16 21:55 SE 7 10.00 Fair CLR 57.9 -27.6 2% 30 0.0
16 21:35 SE 7 10.00 Fair CLR 59.9 -31.2 2% 29.99 0.0
16 21:15 SE 3 10.00 Fair CLR 0 0 0% 29.99 0.0
16 20:55 SE 7 10.00 Fair CLR 0 0 0% 29.99 0.0
16 20:35 S 6 10.00 Fair CLR 0 0 0% 29.98 0.0
16 20:15 SW 14 G 21 10.00 Fair CLR 0 0 0% 29.98 0.0
16 19:55 W 14 G 24 10.00 Fair CLR 0 0 0% 29.98 0.0
16 19:35 W 12 G 21 10.00 Fair CLR 0 0 0% 29.97 0.0
16 19:15 W 13 G 18 10.00 Fair CLR 0 0 0% 29.97 0.0
16 18:55 W 15 G 25 10.00 Fair CLR 0 0 0% 29.97 0.0
16 18:35 W 16 G 26 10.00 Fair CLR 0 0 0% 29.97 0.0
16 18:15 W 16 G 26 10.00 Fair CLR 0 0 0% 29.97 0.0
16 17:55 W 17 G 29 10.00 Fair CLR 0 0 0% 29.97 0.0
16 17:35 W 20 G 26 10.00 Fair CLR 0 0 0% 29.98 0.0
16 17:15 W 20 G 26 10.00 Fair CLR 0 0 0% 29.99 0.0
16 16:55 W 20 G 29 10.00 Fair CLR 0 0 0% 29.99 0.0
16 16:35 W 20 G 29 10.00 Fair CLR 0 0 0% 29.99 0.0
16 16:15 W 21 G 28 10.00 Fair and Breezy CLR 0 0 0% 29.99 0.0
16 15:55 W 18 G 24 10.00 Fair CLR 0 0 0% 29.99 0.0
16 15:35 W 20 G 30 10.00 Fair CLR 0 0 0% 30 0.0
16 15:15 W 18 G 29 10.00 Fair CLR 0 0 0% 30 0.0
16 14:55 W 17 G 28 10.00 Fair CLR 0 0 0% 30 0.0
16 14:35 W 17 G 28 10.00 Fair CLR 0 0 0% 30.01 0.0
16 14:15 W 18 G 26 10.00 Partly Cloudy SCT120 0 0 0% 30.01 0.0
16 13:55 W 17 G 28 10.00 Fair CLR 0 0 0% 30.02 0.0
16 13:35 W 21 G 26 10.00 Fair and Breezy CLR 0 0 0% 30.03 0.0
16 13:15 W 17 G 23 10.00 Partly Cloudy SCT120 0 0 0% 30.03 0.0
16 12:55 W 17 G 22 10.00 Fair CLR 0 0 0% 30.04 0.0
16 12:35 W 15 G 18 10.00 Fair CLR 0 0 0% 30.05 0.0
16 12:15 W 5 10.00 Fair CLR 0 0 0% 30.06 0.0
16 11:55 W 9 10.00 Fair CLR 0 0 0% 30.07 0.0
16 11:35 NW 7 10.00 Fair CLR 0 0 0% 30.07 0.0
16 11:15 N 5 10.00 Fair CLR 71.8 -29.4 1% 30.08 0.0
16 10:55 NW 6 10.00 Fair CLR 70.5 -27.8 1% 30.08 0.0
16 10:35 NW 6 10.00 Fair CLR 69.4 -28.8 1% 30.09 0.0
Date Time (mdt) Wind (mph) Vis. (mi.) Weather Sky Cond. Air Dwpt Max. Min. Relative Humidity Wind Chill (°F) Heat Index (°F) altimeter (in) sea level (mb) 1 hr 3 hr 6 hr
6 hour
Temperature (ºF) Pressure Precipitation (in)